Weather Roundup
Issued by NWS

Home | Current Version | Previous Version | Graphics & Text | Print | Product List | Glossary Off
Versions: 1 2 3 4 5 6 7 8 9 10 11 12 13 14 15 16 17 18 19 20 21 22 23 24 25 26 27 28 29 30 31 32 33 34 35 36 37 38 39 40 41 42 43 44 45 46 47 48 49 50

872
NZUS93 KARX 121659
HRRWXR

CURRENT HOURLY OBSERVATIONS ACROSS
MUCH OF THE UPPER MISSISSIPPI VALLEY
NATIONAL WEATHER SERVICE LA CROSSE WI
1100 AM CST FRI FEB 12 2016


...SOUTHEAST MINNESOTA...


CITY           SKY/WX    TMP DP  RH WIND       PRES   REMARKS
ROCHESTER      SUNNY      9   0  67 NW28      30.30R HAZE    WCI -13
ROCHESTER/MAYO FAIR      10  -1  59 NW16G26   30.32R WCI  -7
WINONA         SUNNY     14   3  62 NW16G26   30.34R WCI  -2
AUSTIN         SUNNY     10   1  67 NW21      30.34R WCI  -9
ALBERT LEA     SUNNY     10   0  61 NW15G23   30.36R WCI  -6
DODGE CENTER   SUNNY     10   0  61 NW17G25   30.32R WCI  -7
PRESTON        SUNNY     10  -1  62 NW15G21   30.30S WCI  -7
OWATONNA       SUNNY     10  -2  56 NW18      30.37R WCI  -8
FARIBAULT      SUNNY     10  -2  56 NW17G23   30.38R WCI  -7
$$

...ELSEWHERE IN MINNESOTA...


CITY           SKY/WX    TMP DP  RH WIND       PRES   REMARKS
MINNEAPOLIS    SUNNY      8  -5  55 NW23G31   30.41R WCI -13
INTNL FALLS    SUNNY     -8 -20  55 NW13      30.44R WCI -28
DULUTH         MOSUNNY   -3 -16  53 NW20G26   30.31R WCI -26
RED WING       SUNNY     12  -6  44 NW14G22   30.36R WCI  -3
REDWOOD FALLS  SUNNY      8  -3  61 NW18G28   30.50R WCI -11
MANKATO        SUNNY    N/A N/A N/A NW20G26   30.41R
WORTHINGTON    SUNNY      9  -2  61 N17       30.46R WCI -10
FAIRMONT       SUNNY      9   0  66 NW20G29   30.43R WCI -11
$$

...SOUTHWEST WISCONSIN...


CITY           SKY/WX    TMP DP  RH WIND       PRES   REMARKS
LA CROSSE      MOSUNNY   14   1  56 NW21      30.29R WCI  -4
PRAIRIE DU CHI SUNNY     17   3  54 NW21      30.30R WCI   0
BOSCOBEL       CLOUDY    18   5  57 NW14G23   30.28R WCI   4
LONE ROCK      NOT AVBL
PLATTEVILLE    CLOUDY    17   9  72 NW15      30.23R WCI   2
FORT MC COY    MOSUNNY   15   2  56 NW17G23   30.26R WCI  -1
VIROQUA        PTSUNNY   13   3  64 NW17      30.22R WCI  -3
WIS DELLS      MOSUNNY   16   0  50 NW14G21   30.18S WCI   1
$$

...ELSEWHERE IN WISCONSIN...


CITY           SKY/WX    TMP DP  RH WIND       PRES   REMARKS
MILWAUKEE      PTSUNNY   18   3  52 NW20G31   30.14R WCI   2
MADISON        PTSUNNY   16   3  56 NW15G28   30.18R WCI   1
GREEN BAY      MOSUNNY   14   0  53 NW17      30.11R WCI  -3
EAU CLAIRE     NOT AVBL
BLACK RVR FLS  FAIR      14  -4  45 NW13G20   30.26R WCI   0
MEDFORD        MOSUNNY    6  -6  56 NW20G25   30.15R HAZE    WCI -14
WAUSAU         PTSUNNY    9  -5  53 NW16G28   30.15R WCI  -8
WIS RAPIDS     MOSUNNY   11  -3  53 NW15G26   30.20R WCI  -5
MARSHFIELD     MOSUNNY    9  -6  50 NW23G36   30.17R WCI -11
RICE LAKE      SUNNY      6  -9  48 NW15G24   30.32R WCI -11
$$

...NORTHEAST IOWA...


CITY           SKY/WX    TMP DP  RH WIND       PRES   REMARKS
WATERLOO       SUNNY     15   5  64 NW24      30.36R WCI  -4
DUBUQUE        PTSUNNY   17   7  64 NW20      30.25R WCI   1
DECORAH        SUNNY     12   1  62 N20G28    30.28R WCI  -6
MASON CITY     SUNNY     11   3  70 NW24      30.39R WCI  -9
CHARLES CITY   SUNNY     12   3  67 NW23G31   30.35R WCI  -7
OELWEIN        CLOUDY    14   7  73 NW24G32   30.32R WCI  -5
$$

...ELSEWHERE IN IOWA...


CITY           SKY/WX    TMP DP  RH WIND       PRES   REMARKS
DES MOINES     MOSUNNY   19   7  59 N21G32    30.42R WCI   3
IOWA CITY      CLOUDY    22  11  62 NW20G25   30.35R WCI   7
FORT DODGE     SUNNY     14   3  62 N18G24    30.45R WCI  -3
MARSHALLTOWN   SUNNY     16   6  65 NW24      30.39R WCI  -2
CEDAR RAPIDS   CLOUDY    19  11  70 NW22G31   30.32R WCI   2
$$

...NORTHERN ILLINOIS...


CITY           SKY/WX    TMP DP  RH WIND       PRES   REMARKS
CHICAGO-OHARE  PTSUNNY   20   8  60 NW20      30.15S WCI   4
CHICAGO-MIDWAY FLURRIES  23  11  60 W17       30.16R WCI   9
MOLINE         PTSUNNY   23  10  57 NW18      30.28R WCI   9
ROCKFORD       PTSUNNY   21   7  54 NW20G30   30.22R WCI   6
PEORIA         LGT SNOW  24  18  77 NW14      30.25S WCI  12
$$

NOTE: "FAIR" INDICATES FEW OR NO CLOUDS BELOW 12,000 FEET WITH NO
SIGNIFICANT WEATHER AND/OR OBSTRUCTIONS TO VISIBILITY. WIND
SPEEDS ARE IN MILES-PER-HOUR.




USA.gov is the U.S. government's official web portal to all federal, state and local government web resources and services.